Location: Unspecified
(0.0000°N, 0.0000°E)
Time: 01:26:45
(UTC+00:00)

STARS - Visible Passes

Search period start: 24 June 2018 00:00
Search period end: 04 July 2018 00:00
Orbit: 626 x 640 km, 98.3° (Epoch: 23 June)

Date Brightness Start Highest point End Pass type
(mag) Time Alt. Az. Time Alt. Az. Time Alt. Az.
24 Jun ? 05:17:22 10° ESE 05:19:17 13° ENE 05:21:13 10° NE visible
24 Jun ? 19:02:48 10° NNW 19:05:55 19° WNW 19:09:02 10° WSW visible
25 Jun ? 05:36:53 10° SE 05:40:29 25° ENE 05:44:04 10° NNE visible
27 Jun ? 18:29:12 10° N 18:33:28 57° WNW 18:37:45 10° SSW visible
28 Jun ? 18:50:56 10° NNW 18:54:40 28° WNW 18:58:24 10° SW visible
29 Jun ? 05:26:22 10° ESE 05:29:14 17° ENE 05:32:06 10° NE visible
29 Jun ? 19:13:29 10° NW 19:15:52 14° WNW 19:18:14 10° WSW visible
02 Jul ? 18:39:18 10° N 18:43:24 41° WNW 18:47:30 10° SSW visible
03 Jul ? 05:16:31 10° E 05:17:59 11° ENE 05:19:26 10° ENE visible
03 Jul ? 19:01:18 10° NNW 19:04:35 21° WNW 19:07:53 10° SW visible
